Flag for Hong Kong Weather past 2 weeks in Hong Kong, Hong Kong

Now
75 °F

Passing clouds.


Feels Like: 76 °F
Forecast: 72 / 79 °F
Wind: 13 mph from East

Location: National Airport


UV Index: 7 (High)

Visibility: 5 mi


Pressure: 29.86 "Hg

Humidity: 78%

Dew point: 68 °F

Location of Hong KongLocation

Historic Weather in Hong Kong

°F

Hong Kong temperature yesterday

Maximum temperature yesterday: 79 °F (at 2:00 PM)
Minimum temperature yesterday: 72 °F (at 3:00 AM)
Average temperature yesterday: 74 °F

Past Weeks' High & Low Weather Summary

 TemperatureHumidityPressure
High86 °F (Apr 13, 1:00 PM)100% (Apr 3, 5:00 AM)30.07 "Hg (Apr 3, 5:00 AM)
Low64 °F (Apr 5, 6:00 AM)24% (Apr 5, 12:00 PM)29.80 "Hg (Apr 2, 2:30 AM)
Average73 °F77%29.95 "Hg
* Reported Apr 1 6:00 PM — Apr 16 6:30 PM, Hong Kong, Weather by CustomWeather, © 2014

Note: Actual official high and low records may vary slightly from our data, if they occured in-between our weather recording intervals... More about our weather records

Advertising

Historic Weather Conditions — Data for Previous 24 hours

 ConditionsComfort  
Time TempWeatherWind HumidityBarometerVisibility
6:30 PM
Apr 16
75 °FScattered clouds.13 mph78%29.86 "Hg5 mi
6:00 PM77 °FScattered clouds.15 mph74%29.86 "Hg5 mi
5:30 PM77 °FScattered clouds.14 mph74%29.83 "Hg6 mi
5:00 PM77 °FScattered clouds.16 mph74%29.83 "Hg6 mi
4:30 PM77 °FScattered clouds.18 mph74%29.83 "Hg6 mi
4:00 PM79 °FPassing clouds.15 mph70%29.83 "HgN/A
3:30 PM79 °FPassing clouds.15 mph70%29.83 "HgN/A
3:00 PM79 °FPassing clouds.15 mph70%29.86 "HgN/A
2:30 PM81 °FScattered clouds.12 mph66%29.86 "HgN/A
2:00 PM81 °FScattered clouds.13 mph66%29.89 "HgN/A
1:30 PM81 °FScattered clouds.10 mph66%29.89 "HgN/A
1:00 PM79 °FScattered clouds.17 mph70%29.92 "HgN/A
12:30 PM77 °FScattered clouds.17 mph69%29.92 "Hg6 mi
12:00 PM77 °FScattered clouds.17 mph69%29.92 "Hg6 mi
11:30 AM75 °FScattered clouds.16 mph69%29.95 "Hg6 mi
11:00 AM75 °FScattered clouds.15 mph69%29.98 "Hg6 mi
10:30 AM75 °FScattered clouds.15 mph69%29.98 "Hg6 mi
10:00 AM75 °FScattered clouds.14 mph69%29.98 "Hg5 mi
9:30 AM73 °FScattered clouds.15 mph78%29.98 "Hg5 mi
9:00 AM75 °FScattered clouds.13 mph74%29.98 "Hg5 mi
7:00 AM72 °FPassing clouds.14 mph83%29.92 "Hg4 mi
6:30 AM72 °FPassing clouds.14 mph83%29.92 "Hg4 mi
6:00 AM72 °FPassing clouds.15 mph83%29.92 "Hg4 mi
5:00 AM72 °FPassing clouds.16 mph83%29.89 "Hg5 mi
4:30 AM72 °FPassing clouds.15 mph83%29.89 "Hg5 mi
4:00 AM72 °FPassing clouds.14 mph83%29.89 "Hg5 mi
3:30 AM72 °FPassing clouds.10 mph83%29.92 "Hg5 mi
3:00 AM72 °FPassing clouds.14 mph83%29.92 "Hg5 mi
2:30 AM72 °FPassing clouds.13 mph83%29.95 "Hg5 mi
2:00 AM72 °FPassing clouds.15 mph83%29.95 "Hg6 mi
1:30 AM72 °FPassing clouds.15 mph83%29.95 "Hg6 mi
1:00 AM73 °FPassing clouds.15 mph78%29.95 "Hg6 mi
12:30 AM73 °FPassing clouds.15 mph78%29.98 "Hg5 mi
12:00 AM73 °FPassing clouds.18 mph78%29.98 "Hg5 mi
11:30 PM
Apr 15
73 °FPassing clouds.17 mph78%29.98 "Hg6 mi
11:00 PM73 °FPassing clouds.18 mph78%29.98 "Hg5 mi
10:30 PM73 °FPassing clouds.20 mph78%29.98 "Hg5 mi
10:00 PM72 °FPassing clouds.20 mph83%29.98 "Hg5 mi
9:30 PM73 °FPassing clouds.18 mph78%29.95 "Hg5 mi
9:00 PM73 °FPassing clouds.20 mph78%29.95 "Hg5 mi
8:30 PM73 °FPassing clouds.20 mph74%29.95 "Hg5 mi
8:00 PM73 °FPassing clouds.18 mph74%29.95 "Hg6 mi
7:30 PM73 °FPassing clouds.16 mph74%29.95 "Hg6 mi
7:00 PM73 °FPassing clouds.17 mph74%29.92 "Hg6 mi
Weather by CustomWeather, © 2014

See weather overview